GFSCGP_prec_cloud_294.txt.gz
Cloud_Cover
100 100 79 100 100 100 100 97 100 100 99 55 100 68 100 56 53 17 20 50 8 95 33 0 87 42 12 99 97 0 11 5 2 5 1 0 97 42 100 57 75 86 0 0
100 81 100 96 94 98 100 100 100 33 98 43 100 100 100 100 100 81 71 52 80 100 79 5 5 5 12 3 0 0 1 5 79 15 0 88 100 70 61 69 96 70 85 71
3 69 32 94 100 100 100 100 98 91 72 18 100 100 100 100 100 100 100 100 99 99 17 8 56 58 5 5 1 0 0 5 3 0 2 2 12 14 53 100 6 82 72 62
3 86 28 5 2 50 100 100 100 92 93 55 100 100 100 100 100 100 100 100 100 100 96 97 86 100 44 40 5 5 5 5 1 0 3 4 37 2 11 70 96 100 91 100
2 2 84 0 0 11 0 4 61 60 59 100 100 100 100 100 100 100 100 100 90 96 5 3 0 2 78 98 97 83 96 98 100 100 58 97 100 85 30 97 100 100 96 100
3 7 3 5 0 1 0 0 0 7 5 90 79 82 100 100 100 100 100 100 100 94 71 100 4 76 1 3 94 89 84 100 100 100 100 100 100 71 2 5 22 100 95 100
5 3 5 3 2 0 0 0 0 0 2 4 35 92 100 35 49 58 100 100 100 89 8 30 18 43 13 24 90 100 100 100 100 100 100 79 64 24 43 69 100 64 100 100
0 0 3 49 5 13 5 0 3 72 26 97 60 100 32 8 0 10 74 100 43 2 0 54 99 97 88 15 90 44 6 100 100 100 100 35 5 5 53 95 100 98 72 100
5 3 0 5 0 10 94 100 33 5 5 100 29 84 100 75 42 2 0 0 5 78 98 100 18 86 95 4 98 100 62 28 52 100 74 79 12 20 100 89 81 100 79 100
0 0 4 0 3 1 1 9 82 85 11 9 92 98 20 16 11 1 2 4 0 0 0 100 3 3 30 1 11 6 92 56 8 25 51 43 34 46 97 100 100 82 94 87
0 0 0 2 0 50 4 0 0 3 38 73 43 90 100 38 6 0 99 100 97 33 67 72 59 2 0 3 46 6 6 10 30 28 55 68 46 90 64 66 74 100 100 100
0 0 0 0 4 1 0 5 5 5 5 39 26 100 99 8 1 0 100 100 100 100 100 91 71 39 32 45 70 12 10 54 38 5 15 75 100 98 83 100 100 100 100 100
0 1 32 5 3 4 0 0 0 21 5 61 77 100 88 0 3 79 100 100 100 92 84 90 100 95 78 96 100 70 60 100 29 62 77 100 100 100 100 100 100 100 100 100
5 97 54 40 100 100 92 20 0 0 0 1 22 100 100 29 28 43 89 100 100 100 100 97 100 100 100 100 100 100 100 100 78 100 100 100 100 100 100 100 100 98 100 93
0 39 33 100 100 5 98 100 89 2 0 3 95 100 93 0 0 0 81 100 100 99 86 80 98 100 100 100 100 100 78 94 99 97 95 100 100 100 100 100 100 96 67 69
0 0 3 82 18 76 100 100 100 69 100 43 5 63 100 4 0 8 66 44 97 100 100 99 100 100 96 5 0 5 60 74 61 37 5 15 100 100 100 99 100 100 100 93
17 0 56 100 100 100 100 91 100 77 100 34 5 53 99 43 100 100 2 25 0 0 31 57 52 52 70 21 2 14 38 65 85 84 98 98 69 97 79 100 100 84 79 100
100 55 2 0 92 20 100 86 100 99 96 3 1 20 100 5 47 75 94 1 5 4 3 82 100 98 92 31 55 83 42 81 76 17 5 1 0 25 1 19 62 54 1 68
99 4 89 11 99 100 98 53 42 93 55 57 68 99 99 91 40 26 25 2 5 5 24 70 75 46 18 58 43 34 59 20 4 6 2 0 0 0 0 0 0 2 18 2
23 31 86 20 100 100 54 100 100 100 100 7 24 93 71 5 15 85 86 47 47 100 86 82 100 46 21 7 5 5 5 0 0 0 0 0 0 1 2 0 0 0 5 0
99 100 100 100 92 100 99 100 95 100 100 41 40 100 100 52 39 99 100 100 100 100 100 100 100 100 100 100 100 100 100 100 100 100 100 40 5 4 1 0 5 2 0 0
98 98 98 100 91 69 39 100 100 44 2 5 2 4 57 100 100 100 100 100 100 100 100 100 100 100 100 100 100 100 95 48 15 8 7 6 5 5 4 0 1 1 1 0
100 95 100 100 100 100 100 100 100 17 4 5 84 88 100 85 97 85 88 100 100 100 100 93 73 45 9 5 8 6 8 5 5 5 5 5 11 25 57 50 10 0 0 0
100 98 80 86 98 95 86 100 50 78 93 100 100 100 100 100 100 100 100 100 67 50 46 42 13 5 5 7 6 20 23 25 38 53 97 100 100 100 100 88 99 91 1 2
100 51 80 100 98 55 77 99 100 100 100 100 100 100 100 100 100 100 100 100 100 90 59 10 4 4 2 3 3 13 30 14 8 8 4 5 94 27 15 100 23 2 0 2
100 96 69 100 100 100 100 100 100 100 100 99 57 68 46 33 25 98 8 1 0 3 5 0 0 0 0 1 0 0 1 1 0 0 0 0 0 9 100 20 93 20 4 100

GFSCGP_prec_cloud_300.txt.gz
Cloud_Cover
100 100 100 100 100 98 100 100 100 100 100 100 100 100 100 30 8 80 100 100 100 100 100 100 99 22 52 1 0 0 3 0 5 95 77 87 42 28 91 82 94 97 25 9
100 100 100 74 98 100 100 100 100 100 100 100 100 87 100 100 100 100 59 100 95 5 48 100 100 99 11 58 0 4 5 3 2 5 95 100 100 100 98 98 100 100 100 100
100 100 100 100 33 45 100 100 100 99 100 100 100 100 100 94 76 100 100 92 51 22 3 22 13 88 99 68 5 5 0 0 0 0 8 38 100 100 100 96 100 100 100 100
100 100 100 100 100 78 92 100 100 100 100 100 100 100 99 100 94 94 100 73 11 54 79 11 98 100 100 100 65 4 6 5 0 82 10 18 18 100 100 100 99 100 100 100
65 96 100 100 90 82 100 63 99 100 100 100 100 100 91 100 100 100 100 53 54 100 92 99 100 99 14 5 66 7 24 5 0 100 36 94 100 100 100 100 100 100 71 94
0 8 55 100 97 100 99 91 100 73 99 100 100 100 100 100 100 100 100 100 96 98 100 100 100 86 7 25 5 26 66 93 54 57 74 100 100 49 68 99 100 100 100 100
0 1 5 20 3 23 100 100 100 100 100 100 98 100 100 100 97 84 100 100 100 100 100 100 100 100 100 78 56 53 21 32 71 100 76 100 54 98 100 100 100 99 100 98
0 0 4 5 2 0 0 26 100 100 100 100 100 99 98 100 100 100 100 100 100 100 100 100 100 100 100 100 100 77 8 99 100 100 99 88 92 64 42 6 79 100 100 73
0 0 0 0 0 0 0 0 0 0 0 3 30 64 5 1 20 72 99 20 49 85 30 35 76 99 100 100 89 89 99 100 100 100 100 99 100 96 98 17 5 5 60 90
0 0 0 0 0 0 0 0 3 5 4 2 53 5 5 3 2 2 67 100 100 100 100 100 100 100 100 100 100 100 100 100 100 100 100 100 100 100 100 90 100 5 19 72
0 0 0 0 0 2 26 68 64 22 4 0 7 59 5 39 78 100 100 100 100 100 100 100 100 100 100 100 100 100 100 100 100 100 100 100 100 100 100 100 100 100 100 100
0 0 0 4 0 23 94 1 0 0 2 0 4 61 100 100 100 100 100 100 100 100 100 100 100 100 100 100 100 100 100 100 100 100 100 100 100 100 100 100 100 100 83 100
0 0 0 0 23 8 0 3 0 0 0 0 8 99 100 65 36 7 39 100 100 100 100 100 100 100 100 100 100 100 100 100 100 100 100 100 100 100 100 100 100 99 80 98
0 0 0 0 48 82 5 5 1 0 0 0 1 95 100 100 99 98 70 99 100 100 100 100 100 100 100 100 100 100 100 95 86 100 98 98 100 100 100 85 68 41 51 22
0 0 0 0 0 10 96 72 28 2 18 24 41 10 93 78 100 98 100 100 100 100 100 92 100 100 96 100 100 100 100 100 100 100 100 100 100 100 97 94 92 12 22 3
45 99 100 100 89 81 70 100 98 5 8 64 47 97 91 62 91 100 81 84 52 17 10 5 3 14 23 97 100 100 100 58 98 100 100 100 99 5 30 95 63 27 53 5
5 3 3 1 5 71 100 100 35 4 5 6 100 92 26 53 15 24 79 100 100 100 96 45 33 5 4 7 74 100 100 99 100 100 100 100 100 94 98 100 85 25 5 0
0 0 0 0 4 71 100 97 3 0 2 1 16 97 85 74 48 100 100 98 67 24 69 60 5 14 22 50 35 24 73 77 92 81 86 93 100 93 70 34 3 0 2 0
0 0 0 0 100 91 31 90 100 98 66 73 97 6 79 78 30 96 99 98 94 54 14 3 3 3 5 5 5 5 8 7 37 24 14 61 5 5 12 5 5 4 0 0
0 0 2 5 100 100 100 63 100 100 100 100 100 100 100 95 100 100 43 56 95 10 0 0 1 5 74 66 30 27 25 70 37 11 45 36 12 14 7 5 4 0 0 0
1 0 1 26 66 86 100 76 83 94 100 100 100 100 100 97 100 99 4 51 59 71 66 66 84 26 4 5 5 5 11 5 25 84 96 100 93 84 86 94 86 65 74 69
8 82 0 6 100 100 100 100 100 98 91 78 78 70 96 100 100 100 52 49 1 0 3 4 22 59 17 25 2 1 2 0 4 30 60 17 26 13 32 61 100 100 98 99
70 35 5 0 28 93 100 98 98 47 100 100 100 100 100 100 84 5 1 5 2 5 4 3 5 5 5 5 51 40 5 3 0 0 0 0 0 5 34 77 85 98 77 24
0 33 27 4 5 4 77 32 14 66 42 32 22 5 5 5 20 26 95 99 15 2 3 3 1 0 0 1 0 0 0 0 0 0 0 0 0 0 0 0 4 6 5 5
0 2 0 3 45 21 40 3 5 5 5 20 27 14 44 90 91 29 6 0 0 2 0 0 3 0 2 3 94 2 4 5 0 0 0 0 0 0 0 0 2 5 22 5
0 3 67 67 18 33 52 0 0 0 0 0 0 0 0 0 0 0 0 1 3 4 0 0 0 0 0 5 73 61 49 8 70 6 77 2 0 0 42 4 5 5 17 5

GFSCGP_prec_cloud_303.txt.gz
Cloud_Cover
100 100 100 100 100 100 100 100 100 100 100 100 100 66 69 7 5 5 6 66 7 51 41 11 100 100 100 100 100 98 0 4 3 0 1 53 47 39 5 5 76 95 17 5
60 79 100 40 92 100 100 100 100 100 100 100 91 71 32 100 31 96 91 100 58 95 100 99 100 100 21 14 84 100 54 2 0 0 24 12 78 95 100 12 41 100 100 11
100 98 100 91 92 100 100 100 100 100 100 100 100 52 100 97 100 100 99 90 100 78 49 97 100 42 98 87 98 100 100 79 5 8 14 3 84 100 100 97 98 100 70 99
100 100 100 99 100 100 100 100 100 97 93 100 100 98 70 81 89 100 100 100 100 100 100 100 100 100 100 100 37 100 88 100 58 100 94 98 96 100 83 100 100 100 86 70
100 100 94 99 33 19 99 99 88 100 98 97 100 100 100 100 100 72 100 100 100 100 100 86 100 100 100 100 24 22 5 53 100 100 96 100 100 100 32 85 100 88 100 100
43 84 55 100 100 93 58 96 100 100 100 99 90 100 100 100 100 100 100 41 94 100 100 100 100 72 62 19 49 35 19 85 100 100 86 100 100 100 100 100 100 99 100 100
8 22 32 73 100 100 96 81 100 100 100 100 97 100 100 100 100 100 100 100 100 100 100 95 95 100 99 49 83 43 41 77 100 100 100 73 97 100 100 100 100 97 96 100
0 2 39 49 93 100 100 99 100 100 100 100 16 100 100 100 100 100 100 100 100 100 100 100 100 100 95 87 100 100 100 100 100 77 99 100 100 100 100 100 100 100 90 25
0 0 0 39 100 36 94 96 13 2 0 47 100 100 100 100 100 100 100 100 100 100 100 100 100 100 100 100 72 86 99 92 100 100 100 100 100 100 100 100 100 100 100 100
0 0 0 0 24 69 38 0 0 0 0 0 2 76 100 100 100 100 100 100 100 100 100 100 95 88 100 100 100 97 100 100 100 100 100 100 100 100 100 100 100 100 100 100
0 0 0 0 0 80 0 0 0 0 0 0 3 0 88 48 100 100 100 100 100 100 100 100 100 100 100 100 100 100 100 100 100 100 100 100 100 100 100 100 100 100 100 100
0 0 0 5 0 0 0 0 0 3 0 0 7 1 100 100 100 100 100 100 100 100 90 40 99 100 100 100 100 100 100 100 100 100 100 100 100 100 100 100 100 100 100 100
2 1 2 5 5 10 0 4 3 1 5 0 0 12 100 100 100 81 92 65 42 92 100 100 100 100 100 100 100 100 100 100 100 100 100 100 100 100 100 100 98 90 64 90
5 5 5 5 5 12 5 3 3 26 4 1 0 81 100 100 100 100 100 100 100 99 52 100 100 100 100 100 100 100 99 100 100 100 100 100 100 100 94 96 100 100 100 100
5 5 4 0 0 0 0 5 9 5 5 4 3 5 88 100 100 94 100 100 58 31 5 87 100 100 100 100 100 100 100 100 100 100 100 100 100 100 100 100 100 100 100 100
1 83 63 69 5 3 0 0 1 5 19 6 7 79 97 100 100 100 100 35 6 27 25 44 35 79 82 100 100 100 100 100 100 100 100 100 100 100 100 100 100 100 100 92
37 5 6 29 15 5 4 6 7 10 5 25 69 99 100 100 100 100 100 100 100 100 100 91 40 9 5 93 100 100 100 87 76 89 92 88 100 100 100 100 100 100 100 100
10 77 43 3 0 0 0 3 100 80 76 60 52 70 2 26 88 98 89 38 60 97 60 13 5 3 3 3 34 48 86 90 50 47 37 68 74 24 16 44 27 34 5 5
74 1 0 0 0 0 0 0 15 5 66 100 96 98 4 91 65 82 12 5 7 7 5 5 5 4 4 5 5 5 5 5 4 1 0 0 1 3 3 5 4 5 4 84
0 0 0 0 0 0 9 2 3 52 100 100 95 100 100 100 100 100 100 100 100 100 89 31 2 1 0 0 0 0 0 0 0 0 0 0 0 0 0 2 5 36 18 18
0 0 0 0 0 0 0 4 4 2 86 100 100 100 100 100 100 100 100 100 80 90 37 0 2 0 0 0 0 0 0 0 0 0 0 0 1 0 0 0 0 0 17 64
0 0 0 0 4 4 0 6 10 80 100 65 50 97 100 100 100 100 100 89 38 62 65 40 4 0 4 0 0 0 0 0 0 0 0 0 0 0 0 0 0 0 0 2
0 0 0 0 0 1 0 5 38 25 5 29 100 100 100 100 100 100 92 47 57 11 89 99 75 10 5 0 0 0 0 0 0 0 0 0 0 0 0 0 0 0 0 4
0 0 0 0 0 0 0 3 4 5 5 72 82 27 35 5 5 5 5 4 4 62 70 18 56 25 0 0 0 0 0 0 7 6 5 3 0 0 0 0 0 0 0 5
0 0 0 0 0 0 0 0 3 5 16 7 5 10 8 7 6 4 4 4 0 4 6 4 5 0 0 0 0 0 0 1 5 95 5 45 3 5 2 0 0 1 5 58
0 0 0 0 3 0 0 1 0 0 0 0 0 0 0 1 0 1 0 0 0 2 3 16 2 0 0 0 0 0 0 2 5 0 8 93 78 45 14 11 40 29 15 12

GFSCGP_prec_cloud_306.txt.gz
Cloud_Cover
86 97 90 100 96 99 97 100 100 100 73 100 100 97 79 90 44 11 64 87 92 100 100 5 5 24 10 41 63 4 5 91 4 0 4 0 4 2 6 17 100 52 100 91
100 89 48 100 100 100 100 100 98 100 95 62 25 96 35 61 97 90 100 100 100 100 100 94 66 84 56 4 5 13 5 5 14 1 5 4 0 2 5 4 16 98 100 100
91 79 80 95 83 64 86 100 100 100 100 100 86 100 71 92 100 100 100 100 100 100 87 96 51 100 100 84 5 21 48 18 5 5 4 17 26 6 18 98 100 100 92 99
88 6 48 55 100 100 94 48 100 100 99 100 100 100 79 100 100 100 100 100 100 100 80 97 100 100 100 100 99 30 9 30 24 2 0 12 98 5 78 74 96 100 100 69
50 58 33 87 74 80 100 100 100 100 100 100 100 100 100 100 100 98 100 100 100 100 100 100 100 100 100 100 100 85 39 87 62 18 5 4 97 87 100 100 100 100 55 77
40 100 58 8 74 42 100 100 100 100 100 100 100 100 100 100 100 100 100 100 100 96 66 100 99 94 100 97 98 85 73 22 48 22 5 5 8 100 100 100 100 100 90 100
5 5 4 8 88 78 98 98 96 100 100 82 74 100 100 100 100 100 100 100 100 100 100 100 100 100 100 100 36 92 96 85 90 95 69 100 100 100 100 100 100 100 100 100
0 0 4 38 0 5 10 94 97 30 63 100 73 51 100 100 100 100 100 100 100 100 100 100 89 100 100 100 100 100 100 100 100 100 100 100 100 100 100 100 100 100 100 100
0 0 0 2 95 70 11 5 5 0 2 100 100 31 100 100 100 100 100 100 100 100 100 100 100 100 100 100 100 100 100 100 100 82 100 100 100 100 100 100 100 100 100 100
0 0 0 0 48 64 5 46 12 5 0 1 94 100 100 100 100 100 100 100 100 100 100 100 100 100 100 100 100 100 100 100 100 100 100 100 100 100 100 100 100 100 100 100
0 0 0 0 0 0 1 1 4 2 0 0 0 37 100 100 100 100 100 100 100 100 100 100 100 100 100 100 100 100 100 100 100 100 100 100 100 100 100 100 100 100 100 100
0 0 0 0 0 0 0 0 1 5 2 0 0 0 41 100 100 100 100 100 100 98 74 69 90 77 100 100 100 100 100 100 100 100 100 100 100 100 100 100 100 100 100 100
0 0 5 99 40 4 5 3 1 0 0 0 0 0 78 71 100 100 100 100 100 100 100 97 99 100 100 100 100 100 100 100 100 100 100 100 100 100 100 100 100 100 100 100
1 4 3 5 46 72 71 94 92 88 18 4 0 2 66 100 100 100 100 100 100 100 100 100 100 100 100 94 100 100 100 100 100 100 100 100 100 100 100 99 100 100 100 100
54 5 5 85 100 20 72 69 60 100 96 60 5 3 13 40 82 100 100 100 100 100 100 92 43 8 6 54 100 100 100 100 100 100 100 100 100 100 100 100 100 100 100 99
99 7 3 5 73 87 6 5 5 5 5 54 27 29 1 25 100 100 100 100 66 13 27 99 56 0 0 0 80 100 100 100 100 100 100 100 100 100 100 100 100 100 100 100
97 89 61 100 88 6 25 82 11 2 1 9 60 83 52 49 100 92 100 97 79 22 48 100 41 4 0 0 0 42 100 100 100 100 100 100 100 89 100 92 76 89 96 99
100 100 100 100 34 42 24 46 2 0 0 17 99 85 85 100 77 50 60 6 10 4 21 18 76 42 19 75 4 0 18 80 100 100 100 100 100 100 100 100 99 88 74 62
100 100 80 9 75 70 4 0 0 0 0 0 0 12 41 24 64 90 70 73 18 61 13 12 3 5 6 5 5 1 4 1 82 85 100 100 100 76 10 8 61 70 99 89
68 100 83 22 2 0 0 0 0 0 0 2 4 9 36 87 6 61 45 99 100 100 100 100 100 100 80 19 5 0 0 0 0 0 0 0 0 0 3 0 0 0 0 0
16 0 0 0 0 0 0 0 0 0 2 3 2 27 94 4 64 30 100 100 100 100 97 100 100 90 5 4 1 0 0 0 0 0 0 0 0 0 0 0 0 0 0 0
0 0 0 0 0 0 0 0 0 0 0 0 1 5 5 97 100 80 16 96 95 80 98 100 60 34 14 6 0 3 5 1 0 0 0 0 0 0 0 0 0 0 0 0
0 0 0 0 3 0 0 0 0 0 5 4 5 21 5 37 95 100 99 96 71 12 9 31 27 5 3 4 0 0 0 0 0 0 0 0 0 0 0 0 0 0 0 0
0 0 3 0 0 0 0 0 0 0 4 45 72 5 5 5 5 6 9 12 6 5 5 5 12 48 1 0 0 0 0 0 0 0 0 0 0 0 0 0 0 4 0 0
0 2 0 0 0 0 0 0 0 0 0 0 0 0 3 2 0 3 3 4 1 1 8 73 61 3 0 1 0 0 0 0 0 0 0 0 0 0 0 0 3 44 0 2
1 0 0 0 0 0 0 0 0 0 0 0 0 0 0 0 0 0 0 0 0 0 4 19 62 98 12 0 0 0 0 0 0 0 0 0 0 0 0 0 0 14 5 11

GFSCGP_prec_cloud_309.txt.gz
Cloud_Cover
100 100 100 100 91 96 82 77 37 100 72 26 5 5 58 5 53 52 76 100 100 5 51 29 89 7 0 34 25 5 0 5 5 5 5 0 4 7 99 20 5 100 77 39
100 100 29 100 100 93 76 100 100 83 81 33 9 17 5 25 50 34 60 100 100 100 97 30 21 30 5 20 27 48 16 8 29 24 6 1 0 2 19 95 64 100 100 100
97 100 51 39 76 86 69 82 100 96 100 100 99 100 99 15 100 39 45 44 100 100 5 100 51 40 5 14 75 90 95 82 22 89 24 4 0 21 49 63 23 87 99 99
8 14 91 94 7 26 99 96 88 99 100 100 100 100 100 100 99 68 21 96 100 100 32 99 25 32 12 7 5 24 98 100 68 47 5 22 5 13 83 18 96 63 75 100
98 20 5 23 59 99 98 97 67 81 100 99 100 100 100 100 100 100 82 82 47 76 92 47 52 5 10 15 5 5 5 5 40 88 37 99 97 100 100 100 100 100 100 100
70 51 24 67 5 2 1 5 95 100 98 95 100 100 100 100 100 100 100 100 100 100 99 100 100 74 43 41 79 9 11 8 58 75 63 91 98 100 100 100 100 100 100 100
32 6 81 15 5 5 5 43 67 61 100 40 85 100 100 100 100 100 100 100 100 100 100 100 100 100 100 100 99 100 96 82 75 100 100 100 100 100 100 100 100 100 100 100
98 44 19 92 74 4 26 100 98 4 10 100 80 100 100 93 100 100 100 100 100 100 100 100 100 100 100 100 97 100 100 96 100 100 100 100 100 100 100 100 100 100 100 100
3 2 0 0 0 3 5 4 5 5 5 88 100 100 100 100 100 100 100 100 100 100 61 85 99 100 100 100 79 84 100 100 100 100 100 100 100 100 100 100 100 100 100 100
0 0 0 0 0 0 5 3 78 86 22 5 3 0 31 83 89 95 100 100 100 100 100 100 100 100 100 100 100 100 100 100 100 100 100 100 100 100 100 100 100 100 100 100
0 0 0 0 0 0 0 0 0 0 0 0 0 0 0 0 0 6 97 100 100 100 100 100 100 100 100 100 100 100 100 100 100 100 100 100 100 100 100 100 100 100 100 100
0 0 0 0 0 0 0 0 0 0 0 0 0 0 0 0 2 44 100 100 100 100 100 100 100 100 100 100 100 97 100 100 100 100 100 100 100 100 100 100 100 100 100 100
2 0 1 6 3 0 0 0 3 4 5 0 1 0 14 87 25 98 100 100 100 100 100 100 100 100 100 100 100 100 100 100 100 100 100 100 100 100 100 100 100 100 100 100
5 5 60 97 100 56 5 6 16 13 5 5 1 0 0 48 85 98 100 100 100 100 100 100 100 100 100 100 100 100 100 100 100 100 100 100 100 100 100 100 100 100 100 100
5 1 6 14 96 100 100 100 100 100 100 90 57 4 0 1 66 100 100 100 62 100 100 100 100 100 100 100 99 100 100 100 100 100 100 100 100 100 100 100 100 100 100 100
86 100 53 5 9 88 100 86 100 99 72 30 5 5 5 6 77 100 100 100 86 98 55 100 100 100 40 4 5 5 3 49 100 100 100 100 100 100 100 100 100 100 100 100
11 78 30 61 84 32 6 100 100 100 90 9 15 6 9 42 35 75 63 70 18 55 100 100 100 43 97 32 5 0 0 3 3 75 93 100 100 89 97 100 100 100 100 100
95 95 83 74 99 93 100 100 87 15 86 50 7 4 0 0 18 32 0 94 65 73 82 90 99 66 5 62 100 100 100 72 6 5 0 53 83 100 100 100 100 100 100 100
100 97 100 97 100 100 100 100 100 100 48 4 0 0 0 0 0 0 4 22 48 99 100 88 100 100 92 56 5 53 27 23 33 53 20 1 0 0 30 100 94 33 19 44
12 87 100 100 100 100 100 100 94 13 0 0 0 0 0 0 0 0 0 0 5 99 100 100 100 95 100 100 100 100 55 5 5 4 5 5 5 1 0 0 2 65 96 32
93 100 100 100 100 68 20 1 0 0 0 0 0 0 0 0 0 0 0 4 10 100 100 100 80 7 6 92 28 46 24 4 5 0 0 0 0 0 0 0 0 0 0 11
11 10 5 5 3 0 0 0 0 0 0 0 0 0 0 0 0 0 1 5 5 99 100 94 80 67 5 28 63 60 22 5 1 1 0 0 0 0 0 0 0 0 0 0
5 0 0 0 0 0 0 0 0 0 0 0 0 0 0 0 2 5 4 0 5 33 27 7 5 5 4 2 1 0 0 0 0 0 0 0 0 0 0 0 0 0 0 0
5 0 0 0 1 0 0 0 0 0 0 0 0 0 0 0 0 0 0 0 1 14 2 3 2 8 5 2 0 0 0 0 0 0 0 0 0 0 0 0 0 0 0 0
4 0 4 5 5 5 0 0 0 0 0 0 0 0 0 0 0 0 0 0 0 0 1 2 6 29 37 0 0 0 0 0 0 0 0 0 0 0 0 0 0 0 0 0
0 4 5 5 5 0 0 0 0 0 0 0 0 0 0 0 0 0 0 0 0 0 0 0 2 2 3 0 0 0 0 0 0 0 0 0 0 0 0 0 0 0 0 0

GFSCGP_prec_cloud_312.txt.gz
Cloud_Cover
100 100 100 66 100 34 52 84 98 68 94 95 60 19 61 5 5 5 29 93 7 5 100 62 88 20 71 16 4 0 0 0 0 5 5 2 0 1 4 5 10 12 5 7
100 100 30 96 67 89 66 72 97 72 45 52 98 100 98 53 30 5 5 4 4 5 68 75 5 6 5 6 8 3 2 0 0 0 5 1 29 20 58 100 56 78 84 41
100 100 100 100 100 98 100 100 100 100 91 100 98 99 85 93 100 98 75 16 7 5 43 98 50 5 2 5 5 22 48 8 11 3 5 2 0 0 1 28 84 100 68 41
84 96 100 100 100 99 100 78 100 100 100 100 100 100 100 100 84 79 78 98 93 41 99 95 99 10 5 5 5 4 5 13 100 31 37 5 6 0 24 99 100 100 100 100
78 22 22 43 98 100 100 100 100 98 100 99 95 98 100 100 100 100 100 90 87 75 50 100 100 61 5 5 4 0 0 0 0 6 5 5 5 97 100 100 100 35 100 78
84 38 9 28 6 5 4 42 93 100 100 45 94 98 100 100 100 100 100 100 100 100 78 33 29 55 84 90 15 4 0 0 1 0 44 54 85 100 100 100 100 100 100 100
51 28 89 30 5 5 14 3 86 86 62 95 78 100 99 100 100 100 100 100 100 100 100 99 100 100 91 96 58 5 21 57 44 82 100 83 100 100 100 100 100 100 100 100
75 85 99 15 6 82 11 76 95 99 100 100 3 1 10 90 100 96 100 100 100 100 100 100 100 100 100 100 100 100 83 100 100 82 100 100 99 100 100 100 100 100 100 100
5 0 64 4 4 4 5 0 10 96 97 37 6 8 5 0 0 43 100 40 9 80 99 100 100 100 100 100 100 100 100 100 99 31 90 100 100 100 100 100 100 100 100 100
0 0 0 0 0 0 0 3 4 41 41 62 100 88 15 1 1 0 0 11 76 97 100 100 100 100 100 100 100 100 100 100 100 100 100 100 100 100 100 100 100 100 100 100
0 0 0 0 0 0 0 0 0 0 0 6 3 21 96 52 0 0 0 80 97 88 100 100 100 100 100 100 100 100 100 100 100 100 100 100 100 100 100 100 100 100 100 100
0 0 0 0 0 0 0 0 0 0 0 2 0 1 0 0 0 0 39 100 100 100 100 100 100 100 100 100 100 100 100 100 100 100 100 100 100 100 100 100 100 100 100 100
0 0 3 18 4 3 0 0 0 0 0 0 0 27 0 0 0 11 98 100 100 100 100 100 100 100 100 100 100 100 89 100 100 90 100 100 100 100 100 100 100 100 100 100
54 56 5 92 100 12 5 19 19 17 5 4 24 87 0 1 0 95 90 100 100 100 100 100 100 100 100 96 89 100 100 100 100 83 75 100 92 100 100 100 100 100 100 100
68 38 42 92 100 100 99 95 92 100 100 54 93 5 2 5 4 82 63 100 16 19 32 76 72 72 95 100 98 100 100 100 100 100 86 99 58 52 100 100 100 100 100 100
15 62 75 98 100 100 100 99 93 98 100 100 100 82 4 1 43 74 100 100 86 64 86 86 74 59 95 99 100 79 62 65 69 20 1 2 89 100 100 100 100 100 100 100
85 74 7 6 36 83 73 96 100 100 100 88 14 19 94 100 100 98 52 79 40 28 33 3 14 5 10 5 4 70 95 28 35 29 9 5 5 76 100 100 34 100 100 100
29 5 5 13 16 58 54 12 68 12 3 82 100 100 100 100 91 37 5 0 0 2 21 33 56 60 83 79 77 29 79 96 48 76 21 49 34 59 28 60 100 100 100 100
5 5 5 43 91 100 84 100 100 100 51 76 100 100 100 76 12 5 0 0 0 3 31 79 55 38 40 100 99 100 100 100 100 100 33 49 100 100 92 15 14 18 48 96
89 19 5 5 51 100 78 86 96 100 100 100 100 48 5 5 3 16 0 0 0 1 51 31 65 100 100 100 100 100 84 100 100 87 9 58 83 2 0 3 10 5 0 0
17 28 46 94 56 69 100 100 100 100 89 70 5 4 0 0 0 0 0 0 0 0 12 0 56 69 100 96 89 99 92 43 50 12 66 61 62 80 8 2 0 0 0 0
100 98 100 14 23 83 27 5 6 12 1 0 0 0 0 0 0 0 0 0 0 0 0 0 2 47 83 76 48 8 2 1 1 50 70 61 31 17 5 4 1 0 0 0
36 24 87 8 78 1 0 0 0 0 0 0 0 0 0 0 0 0 0 0 0 0 0 0 0 0 0 3 2 0 0 0 0 0 0 0 0 0 0 0 0 0 25 21
100 36 5 5 0 0 0 0 0 0 0 0 0 0 0 0 0 0 0 0 0 0 0 0 0 2 0 3 5 3 0 0 0 0 0 0 0 0 0 0 2 19 53 41
9 39 5 5 0 0 0 0 0 0 0 0 0 0 0 0 0 0 0 0 0 0 0 1 0 1 4 8 3 0 0 0 0 0 0 0 1 2 0 0 0 1 0 0
73 100 35 96 0 0 0 0 0 0 0 0 0 0 0 0 0 0 0 0 0 0 2 0 2 0 1 2 0 0 0 0 0 0 0 0 0 0 0 1 0 0 0 0

GFSCGP_prec_cloud_315.txt.gz
Cloud_Cover
99 68 41 60 100 96 100 51 46 98 25 14 59 100 100 54 80 99 72 5 5 73 34 23 99 88 86 19 5 5 0 0 0 5 4 4 1 2 3 24 28 75 33 19
100 100 100 64 14 88 93 98 86 12 11 6 42 100 100 91 5 66 12 11 6 11 27 58 46 70 98 64 6 4 5 5 5 35 20 3 0 2 0 30 100 69 100 100
100 100 100 88 76 92 91 36 88 84 42 5 77 32 30 94 5 5 29 19 76 73 72 39 76 60 96 100 26 1 1 5 5 5 7 5 0 0 2 44 92 96 100 100
94 99 72 85 100 50 100 100 100 100 28 90 100 100 54 7 91 85 33 29 47 70 62 64 16 37 73 84 93 17 6 0 1 0 8 96 93 63 77 96 100 100 100 100
100 100 86 100 94 18 100 59 99 100 93 57 52 21 100 100 26 84 73 100 100 100 100 98 71 8 23 99 99 93 0 7 4 0 6 81 100 100 100 100 100 100 100 90
74 80 39 100 14 5 6 81 96 100 66 80 64 90 81 100 100 100 100 100 99 100 100 100 100 76 28 24 60 100 57 4 20 29 78 100 100 100 100 100 100 100 100 100
22 51 54 77 20 38 2 11 91 100 37 100 100 90 100 68 87 68 30 99 100 100 100 100 100 100 99 100 100 100 90 46 85 100 83 100 90 82 89 84 100 100 100 100
50 77 99 46 4 20 86 44 92 80 79 100 100 100 100 100 2 5 24 22 9 94 100 100 100 100 100 100 100 54 100 71 61 94 81 93 99 62 51 56 86 100 100 100
91 76 85 0 38 23 5 29 87 99 82 21 60 100 100 85 0 0 0 0 54 100 56 23 98 98 100 100 100 100 100 100 100 100 100 100 100 100 96 100 100 100 100 100
27 19 81 5 0 0 0 0 11 94 74 30 17 34 74 100 86 5 0 0 0 0 3 58 89 100 92 94 94 100 100 100 100 100 100 100 100 100 100 100 100 100 100 100
0 0 0 0 0 0 0 0 0 1 30 40 32 100 90 98 49 14 0 12 49 62 98 56 90 100 100 100 97 52 74 97 100 100 100 100 100 100 100 100 100 100 100 100
0 0 0 0 0 0 0 0 1 5 22 34 16 79 0 0 0 0 17 47 75 100 100 100 99 100 100 100 99 100 76 99 95 68 97 98 100 100 100 100 100 100 100 100
0 0 2 5 13 86 18 42 5 4 2 4 71 100 59 5 0 0 5 99 99 100 100 100 100 100 100 100 100 100 100 97 97 100 90 99 95 100 100 100 100 100 100 100
97 67 100 97 100 100 95 47 69 100 98 83 99 100 100 4 5 5 12 100 96 100 100 100 100 100 100 100 99 100 100 100 78 84 79 96 100 75 98 81 100 100 100 100
22 45 41 76 100 100 51 64 26 70 31 95 86 100 100 86 30 68 32 86 100 100 87 72 98 100 79 49 73 64 86 89 95 100 100 100 84 78 12 2 0 21 99 100
3 5 5 98 100 100 100 100 98 75 38 78 92 100 99 99 88 96 100 100 82 49 6 42 85 67 41 37 40 57 61 60 25 56 35 84 50 11 0 0 0 0 4 5
5 21 50 45 100 100 100 100 87 100 100 100 100 100 97 96 88 100 92 77 75 90 95 93 100 81 94 100 100 100 63 91 100 95 67 28 64 44 13 3 4 4 14 10
36 42 7 8 9 66 100 57 53 100 100 65 100 71 100 100 100 95 15 71 98 100 97 96 83 100 100 61 31 1 1 73 17 71 24 95 88 66 97 100 63 79 42 47
5 5 5 82 80 100 97 56 76 78 65 76 7 67 100 100 57 79 100 100 100 100 42 13 80 29 2 0 0 5 82 98 100 100 100 100 94 92 66 91 100 78 100 100
3 10 97 100 100 100 98 98 100 100 100 100 100 100 100 100 100 100 100 100 100 22 7 48 11 0 0 0 0 98 100 99 100 100 100 83 13 5 96 85 100 100 100 97
92 72 82 65 52 100 76 6 57 100 71 97 71 100 100 100 100 82 20 58 61 0 0 8 0 0 0 0 0 5 100 56 1 18 62 47 5 0 5 21 42 76 17 3
97 100 100 97 100 100 70 89 99 72 91 50 66 34 9 4 0 0 1 6 0 0 0 0 0 0 0 0 0 1 14 5 4 1 0 0 2 0 24 88 20 19 1 0
39 77 100 70 95 31 13 7 0 0 0 0 0 0 2 0 0 0 0 1 0 0 0 0 0 0 0 0 0 0 0 0 0 0 0 1 22 11 100 27 88 72 1 2
100 100 100 100 95 28 8 5 0 0 0 0 0 0 0 13 21 0 0 0 0 0 0 0 0 0 0 0 0 1 7 0 0 0 5 14 20 12 10 3 22 17 30 100
100 100 100 86 20 5 5 5 4 0 0 0 0 4 3 1 4 0 0 0 0 0 0 2 7 3 4 1 5 0 0 1 0 0 1 1 0 0 0 0 0 2 1 1
94 100 62 100 100 67 25 5 0 5 0 0 5 3 0 0 5 4 1 0 0 0 26 90 6 5 16 1 0 0 0 0 0 0 0 1 1 4 3 4 4 0 0 0

GFSCGP_prec_cloud_318.txt.gz
Cloud_Cover
98 100 48 83 62 89 98 3 56 54 45 86 88 26 100 71 98 21 5 11 63 31 45 79 5 26 54 2 4 5 0 0 0 0 4 2 5 0 0 0 7 0 5 20
99 99 100 89 76 87 68 94 32 72 74 4 74 43 99 81 73 16 23 0 2 3 94 100 99 74 3 11 4 2 1 0 0 0 1 5 8 32 67 18 5 11 100 100
100 100 100 97 47 61 100 88 75 24 64 99 4 97 83 100 100 100 100 17 0 26 17 4 4 4 5 1 16 4 57 5 4 0 1 4 0 2 51 100 68 100 100 100
100 100 100 100 100 100 100 100 100 100 88 79 100 76 100 100 100 100 100 78 5 63 2 98 58 0 2 3 7 65 5 0 0 0 0 5 5 100 100 99 89 100 100 100
100 100 79 91 80 88 38 94 100 100 69 95 100 100 100 100 100 100 100 100 96 96 42 28 28 25 3 5 5 100 5 4 0 0 0 14 100 100 100 100 100 100 56 100
38 12 21 21 11 5 64 3 40 100 93 100 19 79 97 100 100 98 100 100 100 99 72 100 100 100 100 91 36 5 26 27 17 65 100 100 100 100 100 100 100 100 100 100
22 53 4 8 17 56 60 44 65 89 70 85 52 98 100 73 100 100 100 100 100 100 100 100 100 100 100 100 94 99 93 60 25 54 96 100 100 100 100 100 100 100 88 87
11 50 84 20 94 86 95 98 10 5 45 100 33 100 100 77 100 97 100 17 31 6 56 98 94 56 100 100 100 59 86 97 42 98 98 100 100 100 99 100 100 100 99 100
55 3 3 100 94 100 100 99 73 33 5 31 46 57 10 96 100 100 100 100 31 4 4 3 24 5 79 88 84 100 100 100 86 100 100 100 100 100 100 100 100 100 100 100
46 16 22 100 87 82 60 0 3 0 0 4 40 96 13 0 35 100 100 100 100 100 100 100 100 88 93 99 89 78 36 99 96 100 100 100 100 100 100 100 100 100 100 93
1 0 26 22 99 36 2 0 0 0 0 2 75 98 68 1 0 1 39 73 100 100 100 100 100 100 100 93 35 23 47 84 100 100 100 100 100 100 100 100 100 100 100 100
0 0 0 0 0 4 5 2 5 8 24 6 58 100 100 2 0 0 1 92 98 100 100 100 100 100 91 100 100 62 99 97 100 100 100 100 76 98 100 100 100 100 100 100
0 0 2 0 3 78 82 6 17 4 5 0 0 51 3 5 5 4 10 100 100 100 100 100 100 100 100 100 72 82 39 43 37 74 100 100 100 100 100 100 91 61 99 100
1 12 14 8 89 100 23 59 74 16 39 26 32 100 68 0 0 16 72 100 100 100 100 100 100 100 60 40 30 36 41 82 98 81 94 100 100 100 82 58 45 50 23 35
0 0 6 46 24 100 94 57 28 92 42 49 28 100 96 2 1 3 100 100 100 97 94 99 100 95 62 89 93 94 100 100 100 100 100 100 97 74 63 22 2 2 0 0
92 62 78 5 28 94 95 100 100 97 60 97 100 100 100 13 9 83 100 100 100 100 98 39 17 96 100 96 100 100 83 55 100 100 100 100 98 8 5 5 5 5 4 1
53 69 23 4 8 82 22 48 79 73 100 86 63 89 6 35 45 100 100 100 100 100 80 94 98 100 99 100 73 84 51 54 88 1 59 90 5 5 5 5 5 22 82 5
53 7 16 5 18 7 52 100 22 86 99 48 30 5 26 93 99 100 100 100 100 100 94 96 47 14 70 99 100 100 97 1 6 7 0 6 3 5 86 37 40 59 69 40
57 22 70 80 58 31 18 62 92 48 50 1 2 1 100 100 100 100 100 100 100 100 100 44 93 100 100 100 61 17 5 0 0 0 1 73 84 96 92 46 63 100 100 100
74 3 3 12 69 96 99 98 41 97 40 0 46 0 84 100 100 100 100 100 100 100 100 100 100 100 71 83 47 18 0 0 0 2 20 28 6 8 58 83 98 90 100 100
42 82 97 91 80 97 75 98 84 5 10 2 89 100 88 100 67 36 26 66 96 100 100 100 100 99 35 0 0 0 0 0 0 0 0 0 5 5 0 0 0 4 27 2
7 79 94 32 76 100 99 94 25 46 84 73 3 33 61 5 16 58 100 90 85 78 39 4 0 0 0 0 0 0 0 0 0 0 0 0 0 0 69 90 33 0 0 1
4 86 87 8 100 100 100 100 21 8 5 5 5 86 2 0 0 58 99 97 98 100 3 0 0 0 0 0 0 0 0 0 0 0 0 0 0 2 99 32 67 28 0 0
12 90 75 91 99 100 86 99 22 26 5 5 2 0 3 3 65 35 9 96 99 45 0 0 0 0 0 0 0 0 0 0 0 0 0 0 0 0 0 0 0 63 80 0
59 62 82 100 87 100 100 100 5 19 5 4 0 0 0 0 81 0 0 0 0 0 0 0 0 0 2 95 61 0 4 2 0 0 0 0 0 0 0 0 0 0 0 0
92 62 85 99 99 99 100 100 92 5 5 0 0 0 0 0 0 2 0 0 0 0 0 0 0 0 6 65 1 0 0 1 0 0 0 0 0 0 0 2 0 0 0 0